Regional Weather Roundup
Issued by NWS Mobile, AL

Home | Current Version | Previous Version | Text Only | Print | Product List | Glossary On
Versions: 1 2 3 4 5 6 7 8 9 10 11 12 13 14 15 16 17 18 19 20 21 22 23 24 25 26 27 28 29 30 31 32 33 34 35 36 37 38 39 40 41 42 43 44 45 46 47 48 49 50
946
ASUS44 KMOB 220412
RWRMOB
REGIONAL WEATHER ROUNDUP
NATIONAL WEATHER SERVICE MOBILE AL
1100 PM CDT SAT SEP 21 2019

NOTE: "FAIR" INDICATES FEW OR NO CLOUDS BELOW 12,000 FEET WITH NO
      SIGNIFICANT WEATHER AND/OR OBSTRUCTIONS TO VISIBILITY.

  * THESE STATIONS ARE PART OF THE UNIVERSITY OF SOUTH ALABAMA
    MESONET AND ARE NOT UNDER NWS OR FAA QUALITY CONTROL.

ALZ061>064-220500-
COASTAL ALABAMA

CITY           SKY/WX    TMP DP  RH WIND       PRES   REMARKS
MOBILE REG APT FAIR      72  70  93 CALM      30.16S
BROOKLEY FIELD FAIR      80  69  69 SE9       30.16F
USA CAMPUS*      N/A     72  72 100 CALM      30.17F
DOG RIVER*       N/A     77  70  78 S5        30.16F


CITY           SKY/WX    TMP DP  RH WIND       PRES   REMARKS
GULF SHORES    FAIR      71  66  85 CALM      30.15S

$$

ALZ051>060-220500-
INTERIOR SOUTHWEST AND SOUTH CENTRAL ALABAMA

CITY           SKY/WX    TMP DP  RH WIND       PRES   REMARKS
GREENVILLE     MOCLDY    72  59  63 CALM      30.18S
EVERGREEN      FAIR      67  61  81 CALM      30.18S
ATMORE*          N/A    N/A N/A N/A CALM      30.16F
ANDALUSIA/OPP  FAIR      73  58  59 CALM      30.17F
ANDALUSIA*       N/A     72  59  64 E3        30.17S
FLORALA APT    MOCLDY    71  57  61 CALM      30.18F
FLORALA*         N/A     68  59  73 CALM      30.18F

$$

FLZ001>006-220500-
WESTERN FLORIDA PANHANDLE

CITY           SKY/WX    TMP DP  RH WIND       PRES   REMARKS
PENSACOLA      FAIR      74  68  81 CALM      30.15S
NAS PENSACOLA  FAIR      74  67  78 N3        30.14S
MILTON         FAIR      66  64  93 CALM      30.16F
WHTNG S FIELD  FAIR      67  66  97 CALM      30.16S


CITY           SKY/WX    TMP DP  RH WIND       PRES   REMARKS
JAY*             N/A     68  64  88 CALM      30.18F
DUKE FIELD     FAIR      67  64  87 CALM      30.16S
CRESTVIEW      FAIR      67  61  81 CALM      30.17F
VALPARAISO     FAIR      73  65  74 CALM      30.15S
DESTIN         MOCLDY    75  67  76 NE3       30.15S

$$

MSZ076-079-220500-
INTERIOR SOUTHEAST MISSISSIPPI

CITY           SKY/WX    TMP DP  RH WIND       PRES   REMARKS
LEAKESVILLE*     N/A     73  66  78 CALM      30.17S
AGRICOLA*        N/A     72  68  88 CALM      30.17

$$

MARINE OBSERVATIONS

STATION/POSITION TIME  TEMP    WIND        PRES    WAVE
                       AIR SEA DIR/SP/G            HT/PER
                 (UTC) (F)     (DEG/KT/KT) (MB)    (FT/S)
PETIT BOIS ISLND 0324   80     120/ 11/ 15 1020.6F
GRAND BAY        0230   82     130/ 11     1022.0R
KATRINA CUT      0330   82     140/ 16     1020.7S
CEDAR POINT      0330   82     120/ 13     1020.3F
E DAUPHIN ISLAND 0300   82     120/ 16/ 18 1020.8R
USCG MOBILE BAY  0330   84 84  130/  7/  9 1021.2S
STATE DOCKS      0330   80 85              1021.1F
MEAHER PARK      0330   77     110/  2     1021.7R
WEEKS BAY        0230   72                 1021.0R
FORT MORGAN      0330   82     140/ 17/ 19 1020.7S
12 S ORANGE BCH  0350   84 84  120/ 14/ 17 1020.4F   6/ 8
PENSACOLA BAY    0330   82 84  130/  1/  3 1021.0S
64 S DAUPHIN ISL 0350   83     110/ 17/ 21 1020.0F   7/ 8

$$

SELECTED LOCATIONS ACROSS THE REGION

CITY           SKY/WX    TMP DP  RH WIND       PRES   REMARKS
NEW ORLEANS    FAIR      77  71  82 E6        30.12S
GULFPORT       FAIR      80  66  62 SE10      30.13S
PASCAGOULA AP  FAIR      69  65  86 CALM      30.14F
PASCAGOULA*      N/A     81  66  61 CALM      30.13
HATTIESBURG    FAIR      72  67  84 CALM      30.16R
LAUREL         FAIR      70  68  93 CALM      30.17R
MERIDIAN       CLOUDY    71  64  78 CALM      30.16R
JACKSON        FAIR      76  67  73 S6        30.14S
MONTGOMERY     FAIR      72  60  66 E6        30.18F
TROY           MOCLDY    69  63  81 CALM      30.19F
ASHFORD*         N/A     72  59  64 E3        30.17S
DOTHAN         FAIR      67  59  75 CALM      30.21F
PANAMA CITY    CLOUDY    75  61  61 E3        30.15S

$$





USA.gov is the U.S. government's official web portal to all federal, state and local government web resources and services.